This is the latest recevied weather packets stored in our database for station/object WX8ASH-13. If no packets are shown the sender has not sent any weather packets the latest 10 day(s).
| Time | Temp. | Humidity | Pressure | Rain* | Wind** | Luminosity | Snow |
|---|---|---|---|---|---|---|---|
| 1777830340 | 15° C | 46% | 1016.7 hPa | 0 mm | - | - | - |
| 1777830040 | 15° C | 50% | 1016.6 hPa | 0 mm | - | - | - |
| 1777829741 | 14.44° C | 48% | 1016.6 hPa | 0 mm | - | - | - |
| 1777829440 | 14.44° C | 51% | 1016.8 hPa | 0 mm | - | - | - |
| 1777829140 | 14.44° C | 52% | 1017 hPa | 0 mm | - | - | - |
| 1777828840 | 14.44° C | 49% | 1017 hPa | 0 mm | - | - | - |
| 1777828540 | 14.44° C | 51% | 1017.1 hPa | 0 mm | - | - | - |
| 1777828239 | 14.44° C | 52% | 1017.1 hPa | 0 mm | - | - | - |
| 1777827940 | 14.44° C | 52% | 1017.1 hPa | 0 mm | - | - | - |
| 1777827640 | 14.44° C | 51% | 1017.2 hPa | 0 mm | - | - | - |
| 1777827339 | 13.89° C | 55% | 1017.3 hPa | 0 mm | - | - | - |
| 1777827039 | 13.89° C | 54% | 1017.4 hPa | 0 mm | - | - | - |
| 1777826739 | 13.89° C | 53% | 1017.3 hPa | 0 mm | - | - | - |
| 1777826439 | 13.89° C | 50% | 1017.4 hPa | 0 mm | - | - | - |
| 1777826138 | 13.89° C | 59% | 1017.4 hPa | 0 mm | - | - | - |
| 1777825839 | 13.89° C | 54% | 1017.4 hPa | 0 mm | - | - | - |
| 1777825539 | 13.33° C | 57% | 1017.5 hPa | 0 mm | - | - | - |
| 1777825238 | 13.33° C | 54% | 1017.5 hPa | 0 mm | - | - | - |
| 1777824939 | 13.33° C | 55% | 1017.6 hPa | 0 mm | - | - | - |
| 1777824638 | 13.33° C | 58% | 1017.6 hPa | 0 mm | - | - | - |
| 1777824338 | 13.33° C | 54% | 1017.6 hPa | 0 mm | - | - | - |
| 1777824037 | 12.78° C | 58% | 1017.7 hPa | 0 mm | - | - | - |
| 1777823737 | 12.78° C | 57% | 1017.7 hPa | 0 mm | - | - | - |
| 1777823437 | 12.78° C | 57% | 1017.8 hPa | 0 mm | - | - | - |
| 1777823137 | 12.22° C | 56% | 1017.8 hPa | 0 mm | - | - | - |
* Rain latest hour (hover to see other rain measurements)
** Current wind speed in m/s (hover to see current wind gust speed)